Notices

What's New in latest Release from April 7th, 2021:

- Updated Glossary, including Speed of Maximum Gust, and Total Hourly Precipitation

- Updated national and regional climate services offices contacts and prices information

- Addition of station inventory lists for 1981-2010, 1971-2000, and 1961-1990 Normals.

If you haven't already, please take our survey and provide feedback about our website: https://eccc.sondage-survey.ca/f/LanguageSelection.aspx?s=442ca660-fcf1-47c0-95a9-59707d6fd709

Hourly Data Report for March 05, 2010

HALIFAX STANFIELD INT'L A
NOVA SCOTIA

44°52'48.060" N
63°30'00.050" W
145.40 m
8202250
71395
YHZ

Download Data

Hourly Data (March 2010)
Hourly Data Report for March 5, 2010
TIME
LST
Temp Definition
°C
Dew Point Definition
°C
Rel Hum Definition
%
Precip. Amount Definition
mm

Wind Dir Definition
10's deg

Wind Spd Definition
km/h
Visibility Definition
km
Stn Press Definition
kPa
Hmdx Definition


Wind Chill Definition


Weather Definition


00:00 -1.8 -4.1 84   1 35 24.1 98.40   -9 Snow Showers
01:00 -1.8 -4.1 84   1 41 24.1 98.46   -10 Snow Showers
02:00 -1.8 -4.0 85   1 39 24.1 98.49   -10 Snow Showers
03:00 -1.9 -4.1 85   1 39 19.3 98.50   -10 Snow Showers
04:00 -2.1 -4.3 85   1 39 24.1 98.56   -10 Snow Showers
05:00 -2.5 -4.6 85   36 39 24.1 98.60   -11 Snow Showers
06:00 -2.7 -4.9 85   36 32 24.1 98.65   -10 Snow Showers
07:00 -2.7 -5.2 83   36 37 9.7 98.70   -11 Snow Showers
08:00 -2.6 -5.2 82   36 50 9.7 98.77   -12 Snow Showers
09:00 -2.2 -5.1 80   36 44 16.1 98.84   -11 Snow Showers
10:00 -1.9 -5.0 79   36 35 16.1 98.86   -9 Snow Showers
11:00 -1.8 -4.8 80   36 48 19.3 98.88   -10 Snow Showers
12:00 -1.7 -4.9 79   36 39 19.3 98.88   -10 Snow Showers
13:00 -2.1 -5.0 80   36 43 16.1 98.88   -10 Snow Showers
14:00 -2.2 -5.2 80   36 44 19.3 98.91   -11 Snow Showers
15:00 -2.6 -5.4 81   36 26 19.3 98.92   -9 Snow Showers
16:00 -2.6 -5.4 81   36 56 19.3 98.95   -12 Snow Showers
17:00 -2.7 -6.6 74   1 44 24.1 98.95   -11 Cloudy
18:00 -3.3 -7.6 72   36 48 24.1 99.04   -12 Mostly Cloudy
19:00 -4.0 -8.1 73   36 37 24.1 99.09   -12 Mainly Clear
20:00 -4.4 -8.3 74   35 43 24.1 99.09   -14 Mainly Clear
21:00 -5.0 -8.7 75   35 35 24.1 99.10   -14 Mainly Clear
22:00 -5.3 -9.0 75   35 32 24.1 99.09   -14 Clear
23:00 -5.3 -9.3 73   34 28 24.1 99.06   -13 Clear

Notes on Data Quality.

Legend

  • E = Estimated
  • M = Missing
  • NA = Not Available*
  • [empty] = Indicates an unobserved value
Date modified: